Location: Newark
(33.6333°S, 78.8500°W)
Time: 11:51:50
(UTC+00:00)

Tiros 1 - Pass Details

Date: 19 October 2019
Orbit: 630 x 664 km, 48.4° (Epoch: 20 November)

Event Time Altitude Azimuth Distance (km) Brightness Sun altitude
Rises 19:58:25 0° 270° (W) 2,942 11.3 43.0°
Reaches altitude 10° 20:01:11 10° 255° (WSW) 2,032 10.5 42.4°
Maximum altitude 20:04:53 23° 203° (SSW) 1,377 9.1 41.7°
Drops below altitude 10° 20:08:35 10° 150° (SSE) 2,031 9.5 41.0°
Sets 20:11:21 0° 135° (SE) 2,941 10.1 40.4°
